GFSMW_500_spd_000.txt.gz
Wind_Speed
20 15 18 21 14 12 14 16 15 17 19 22 24 24 25 29 28 26 28 27 30 30 29 25 25 24 21 25 35 39 38 33 27 27 26 24 21 20 19 17 18 19 20
16 24 19 21 20 13 16 18 16 18 22 24 26 27 32 34 24 23 24 28 29 31 32 30 27 25 24 27 33 32 40 41 35 31 26 24 21 20 19 19 20 21 21
23 22 18 22 23 18 18 17 15 16 23 27 31 34 38 35 19 22 21 24 27 27 27 30 31 28 27 28 30 31 34 40 38 35 29 26 24 20 21 21 21 22 23
22 27 27 28 27 26 34 14 14 17 23 31 37 38 42 26 20 19 20 21 26 28 27 27 33 32 28 28 29 30 35 34 33 36 32 30 25 21 19 22 21 21 25
27 20 21 27 29 32 24 17 14 20 26 27 35 36 34 22 16 14 14 16 21 23 24 23 29 31 29 29 29 30 37 35 28 35 28 25 23 21 22 24 23 23 24
23 24 23 24 30 15 12 12 17 21 25 28 31 33 29 16 11 10 9 12 16 19 20 21 24 29 29 29 30 29 38 35 32 30 23 22 25 22 21 21 23 24 24
17 17 21 24 26 15 15 16 18 25 27 24 28 31 28 12 9 9 8 8 11 12 14 16 21 24 27 28 29 28 30 31 31 28 23 23 22 22 24 24 23 22 21
13 15 16 18 16 14 18 17 20 26 21 23 25 30 23 10 11 9 5 5 7 11 14 15 19 22 25 27 28 29 34 33 31 25 27 26 25 29 26 25 21 21 23
13 16 16 17 18 17 17 22 21 19 19 19 22 27 29 12 7 5 5 5 7 8 11 14 16 19 22 24 27 29 31 35 34 29 31 27 28 29 29 32 28 27 24
14 16 12 13 16 17 22 25 21 18 13 13 18 24 29 24 8 4 3 1 1 3 7 10 12 15 19 22 24 25 30 32 33 32 28 26 24 26 24 25 22 27 26
18 18 16 19 18 22 23 26 17 10 8 12 16 19 24 28 21 8 1 3 4 3 4 5 7 12 17 20 22 21 25 25 24 25 22 23 25 23 19 29 24 25 27
20 20 21 20 20 20 21 24 18 7 8 13 18 16 17 21 24 22 7 4 3 2 3 3 8 9 13 15 17 16 18 24 28 28 26 28 27 26 26 29 30 27 28
22 21 22 22 21 22 18 16 14 11 12 18 20 20 19 18 18 17 14 15 13 5 7 6 5 9 10 9 12 16 21 25 27 28 29 30 31 31 33 22 27 27 27
20 22 24 24 24 22 20 16 15 16 17 16 18 21 20 21 19 17 12 11 10 12 10 4 9 11 14 16 18 20 22 26 23 31 32 32 32 33 32 29 25 21 20
21 24 27 26 25 22 20 19 20 22 20 21 25 28 24 21 20 16 13 10 9 10 8 7 9 10 11 13 18 21 26 30 28 31 31 34 34 30 29 31 29 29 29
23 23 26 25 22 20 18 18 22 19 18 20 24 27 25 22 19 17 14 14 12 9 9 10 10 13 10 10 11 14 19 23 24 28 31 33 34 30 25 29 31 33 36
21 24 27 26 23 20 20 20 20 23 23 23 23 20 24 22 21 16 11 13 13 14 11 12 15 15 16 17 18 17 16 19 21 22 25 26 27 29 32 29 28 28 27
25 29 30 27 22 20 21 23 23 23 24 23 24 19 19 18 14 11 10 14 15 18 20 19 19 20 20 21 22 22 23 23 24 24 26 28 30 30 26 27 27 28 27
29 32 29 27 23 22 23 22 24 28 26 22 20 17 15 11 15 14 15 16 19 23 25 23 22 21 22 24 23 23 25 26 27 29 30 30 29 28 27 27 27 28 29
31 33 28 27 25 23 22 22 24 24 23 21 18 17 19 17 17 17 17 20 22 21 21 22 21 23 25 23 23 24 26 27 30 32 33 33 34 33 31 30 30 32 34
31 31 31 28 24 22 21 22 22 20 19 17 16 17 19 19 22 23 23 24 22 21 24 25 26 23 25 24 27 27 28 30 31 30 32 33 36 38 39 40 40 40 43
31 31 30 26 26 22 22 23 21 21 20 18 17 19 19 22 21 24 24 23 23 24 26 26 24 28 30 31 31 33 36 35 32 30 32 35 35 35 37 40 41 43 39
33 32 30 27 26 25 25 24 21 21 22 22 24 22 19 19 21 23 26 29 27 25 24 23 17 24 28 24 28 35 34 30 29 28 28 25 27 29 31 32 34 39 47
35 33 31 30 27 26 26 25 23 23 25 28 28 26 23 22 23 26 28 26 27 28 32 28 24 21 21 23 27 31 30 34 34 31 30 33 37 38 38 34 34 37 39
35 35 32 30 27 27 27 27 28 29 30 32 33 30 26 23 22 22 25 27 27 26 26 25 24 23 22 22 23 25 27 29 31 31 28 29 32 34 36 38 41 44 45
32 31 32 31 28 27 30 28 28 30 32 31 30 27 24 21 20 19 19 21 22 24 24 23 22 23 24 24 25 23 24 26 28 30 33 36 38 40 42 44 47 49 52

GFSMW_500_spd_006.txt.gz
Wind_Speed
34 25 13 18 18 13 6 10 14 16 17 16 15 21 16 19 22 22 20 27 31 29 27 29 32 31 27 25 23 20 28 35 35 35 33 30 26 24 20 20 21 19 21
34 26 26 19 17 10 6 5 11 12 13 16 17 17 17 21 27 21 18 16 18 20 27 27 30 33 30 25 22 23 20 32 37 39 36 31 31 27 25 25 25 25 25
36 21 9 19 21 16 27 2 13 8 12 17 22 21 22 31 25 16 15 14 16 21 23 27 31 30 30 25 24 23 21 27 36 42 37 34 31 31 29 27 25 25 24
31 23 8 9 16 19 15 12 16 15 17 22 19 20 23 28 15 16 15 13 12 17 19 21 30 31 28 28 25 22 19 23 36 38 38 35 30 33 32 29 25 24 25
26 12 9 13 21 19 16 17 18 19 21 19 19 19 25 22 13 14 15 15 11 11 14 20 25 28 28 29 25 21 19 21 30 34 34 37 34 31 31 26 26 25 25
21 11 12 12 15 9 8 12 15 17 20 19 18 20 25 21 15 14 14 15 10 5 6 11 18 22 25 28 28 26 21 22 25 29 31 32 38 37 33 29 29 25 26
18 10 11 9 9 12 13 14 18 20 17 15 13 17 22 26 16 17 15 10 8 3 3 7 13 18 22 24 27 29 25 24 22 27 26 29 31 34 37 38 38 28 22
17 14 14 10 11 13 14 16 20 17 12 10 12 16 19 25 24 21 12 7 7 4 3 7 12 16 20 22 24 27 26 23 23 24 28 29 29 26 29 32 29 25 21
14 12 12 14 13 14 14 19 15 10 8 11 15 16 19 23 24 21 14 11 8 5 4 7 8 10 15 17 18 21 23 23 24 25 26 30 32 29 25 31 21 24 24
16 11 12 14 16 16 16 18 14 7 7 16 16 17 20 22 21 19 12 10 10 10 6 2 7 9 11 13 16 18 19 20 24 24 24 28 31 31 28 23 22 19 20
6 8 11 11 16 16 18 14 8 6 9 15 16 18 21 22 17 17 14 8 7 7 8 9 6 8 10 12 14 16 17 20 21 20 21 22 21 22 24 22 22 23 23
22 10 11 11 13 15 15 14 8 6 12 18 16 16 19 22 15 12 11 11 11 4 5 3 3 3 8 11 10 12 14 16 19 21 22 24 26 25 29 30 28 25 24
35 14 6 11 14 16 16 15 12 12 11 17 15 15 19 20 15 10 8 8 8 10 1 2 6 4 5 9 10 12 13 15 19 22 21 28 30 31 31 31 31 29 30
40 18 10 6 14 15 15 11 11 7 11 14 17 18 20 18 15 9 5 6 6 6 6 4 3 4 5 7 8 10 11 12 10 13 15 15 16 18 23 26 30 31 32
2 11 5 5 7 10 12 13 10 10 12 14 16 20 20 19 14 11 7 5 6 6 3 2 2 1 1 5 11 16 18 16 17 15 18 21 22 25 24 28 31 36 39
12 6 8 1 11 12 12 13 10 11 14 15 17 19 18 17 14 14 12 6 7 7 6 6 6 5 5 6 7 6 7 10 13 17 20 25 24 25 25 28 30 31 32
14 10 8 16 15 15 14 13 11 12 14 18 15 16 16 12 10 11 12 10 8 10 9 9 11 13 15 15 12 12 14 16 15 15 16 16 19 20 22 22 25 26 26
13 11 13 17 18 20 20 18 13 14 15 15 13 12 15 14 11 10 11 12 14 16 18 19 18 19 16 15 15 12 13 14 17 16 17 18 21 23 25 25 26 27 28
16 15 19 21 20 22 23 24 20 16 16 14 15 12 14 11 10 13 14 15 15 17 18 19 20 19 17 18 17 16 15 17 17 17 17 19 21 23 25 26 28 29 30
20 22 23 24 25 24 25 24 22 18 16 14 14 13 11 8 10 10 11 13 15 16 18 21 19 18 17 19 21 21 21 22 21 22 22 22 24 26 27 29 29 29 30
22 23 26 27 28 28 26 24 23 20 18 17 16 14 11 11 12 13 14 17 19 19 19 20 22 21 22 25 24 23 21 24 20 19 21 24 26 27 29 30 31 30 31
26 26 28 31 31 30 27 25 25 23 20 19 18 17 17 16 18 18 18 20 21 22 22 23 24 26 27 29 26 27 26 22 23 24 24 24 25 28 28 28 29 30 28
31 31 32 31 30 31 29 27 26 25 24 22 19 20 21 23 23 21 23 19 26 25 25 27 28 25 26 26 27 28 28 29 28 28 28 25 24 23 24 24 27 28 30
26 27 26 25 26 28 27 26 27 26 24 23 23 21 21 20 20 18 21 26 25 26 27 28 27 24 23 21 20 21 22 23 24 24 25 25 24 24 26 27 29 31 33
29 31 31 31 31 30 30 27 25 25 22 22 24 23 21 20 20 22 22 25 26 27 27 25 24 24 21 18 18 18 18 18 19 20 22 25 28 30 32 35 37 39 41
38 38 37 36 33 31 28 26 24 23 22 22 24 22 22 21 23 23 24 24 26 25 24 23 22 20 18 18 16 17 19 21 24 26 28 30 31 33 36 38 41 44 47

GFSMW_500_spd_009.txt.gz
Wind_Speed
32 33 33 49 31 28 19 13 9 11 7 6 8 11 16 18 20 23 27 27 26 27 28 31 34 35 35 33 31 29 24 25 30 35 35 33 31 29 25 24 18 17 16
32 35 31 20 27 20 16 21 10 12 4 3 7 11 13 14 21 23 22 20 23 22 18 20 28 33 35 35 31 28 26 22 25 33 33 33 32 31 27 23 18 19 19
31 33 19 13 18 17 17 26 12 3 1 6 8 11 13 19 23 13 11 12 14 19 19 20 22 29 33 33 31 28 25 24 22 35 34 35 35 32 28 25 23 22 21
31 25 14 13 13 16 14 17 4 3 6 8 8 11 14 22 18 10 9 10 13 14 19 22 24 26 31 31 31 28 26 23 22 26 35 37 36 32 29 28 29 29 25
24 17 18 18 16 16 11 12 9 8 10 11 12 11 14 22 16 11 12 12 11 14 15 19 21 23 30 29 28 27 25 24 23 26 30 32 37 35 31 28 33 29 27
21 14 12 15 14 16 15 15 13 12 8 7 7 10 16 22 21 12 13 12 10 10 12 12 16 18 25 29 26 28 26 23 20 21 26 28 30 33 35 30 28 30 30
18 13 9 6 9 11 13 16 21 13 6 4 8 12 19 24 24 16 10 9 8 7 7 8 9 18 22 24 24 28 26 23 20 20 23 26 27 29 31 35 34 30 30
10 9 7 9 10 10 13 18 18 12 7 9 11 17 20 22 22 16 11 10 9 8 8 6 8 12 16 19 21 25 27 26 22 22 23 26 26 29 32 31 35 39 36
8 8 5 4 10 16 17 20 17 10 13 18 16 17 20 22 20 19 14 10 10 8 5 6 7 11 16 19 21 23 27 28 27 24 25 24 28 29 31 31 30 30 30
9 26 14 4 6 12 14 15 13 9 11 16 22 19 20 22 19 17 15 10 9 7 6 4 4 9 10 14 17 18 21 24 26 26 25 25 26 28 31 32 25 27 28
29 33 25 12 4 7 11 13 11 10 10 17 23 18 18 20 18 16 13 12 10 8 9 6 1 5 7 10 12 13 16 19 22 23 23 22 25 26 24 30 29 27 27
30 34 32 16 12 6 9 12 12 13 16 19 18 14 18 20 17 15 12 10 10 12 7 8 6 0 5 9 11 12 13 17 20 21 21 21 20 22 23 23 24 26 22
35 35 33 27 14 14 10 13 12 12 12 13 16 18 19 20 17 13 11 10 9 9 7 3 7 4 1 4 8 9 8 12 15 17 19 22 21 22 25 26 22 26 28
29 17 23 4 11 13 12 13 12 10 10 14 16 17 20 20 17 13 13 11 11 8 7 6 4 7 4 4 5 9 11 11 11 11 11 20 20 20 27 29 28 25 29
22 12 7 2 7 11 11 15 13 11 11 12 13 19 21 19 17 13 13 11 10 11 9 8 7 6 6 6 9 12 15 17 18 16 15 15 17 17 20 24 25 27 28
14 10 7 5 7 8 10 13 11 10 12 14 14 17 21 19 13 13 12 11 10 11 11 10 9 10 11 12 13 12 11 11 12 14 18 21 23 24 29 29 27 27 28
14 5 5 6 8 7 8 7 11 12 14 14 15 13 17 16 12 12 10 11 12 14 14 13 14 14 13 14 17 17 16 15 15 17 19 20 20 21 23 24 29 28 27
19 12 12 9 11 11 13 12 10 11 15 13 13 13 15 13 10 8 8 10 12 15 17 18 19 19 18 16 13 12 13 14 14 17 20 21 22 23 24 25 27 29 30
24 20 16 17 19 17 17 16 18 15 11 11 10 9 12 12 11 8 6 9 12 14 17 18 19 19 18 18 19 17 18 18 18 16 18 20 22 25 27 27 27 29 29
20 23 21 19 20 22 22 22 22 20 21 14 10 10 12 11 9 9 10 9 13 14 15 17 19 20 20 21 21 21 23 25 23 22 21 22 24 27 27 28 29 31 32
22 17 19 21 24 25 24 25 23 22 21 21 16 13 14 16 15 15 16 15 17 15 15 16 19 23 24 26 28 28 26 25 25 25 27 26 27 28 30 32 33 31 31
21 23 24 27 27 27 26 25 24 24 23 22 20 19 20 19 19 20 21 22 22 21 19 19 20 25 25 28 30 31 28 25 26 27 27 29 31 30 29 31 29 27 28
27 28 27 26 26 25 22 21 22 24 23 23 22 21 20 20 23 24 24 25 27 24 24 27 27 28 30 29 28 27 28 29 29 30 32 29 28 27 25 24 25 26 27
30 28 28 28 28 26 26 27 26 26 23 24 23 21 21 22 22 23 20 34 33 26 31 33 31 34 33 31 28 26 26 25 24 24 24 25 24 25 26 29 31 32 34
30 29 31 32 34 34 33 33 32 28 25 22 21 22 21 22 24 24 26 28 30 30 33 32 34 34 34 30 26 23 21 20 19 18 20 22 25 27 29 32 34 37 39
20 24 28 30 32 32 32 31 29 28 24 20 18 19 21 23 25 27 29 28 34 36 37 36 34 33 31 28 24 20 19 18 19 21 24 26 29 31 34 36 38 41 44

GFSMW_500_spd_015.txt.gz
Wind_Speed
21 21 26 32 33 39 31 28 26 27 22 15 13 11 16 17 17 21 22 24 27 28 26 25 30 35 35 34 31 31 30 30 30 28 27 27 28 32 30 25 25 21 18
18 18 23 28 29 18 24 27 15 25 21 13 9 11 15 17 18 21 26 28 24 24 24 22 22 25 25 26 32 31 31 30 27 27 28 26 28 28 28 29 30 24 21
15 19 23 28 25 20 22 28 2 8 13 15 8 11 15 17 19 25 29 24 20 22 22 21 23 22 23 23 25 29 29 30 28 26 26 24 22 27 29 34 31 29 24
21 22 22 25 20 16 17 16 15 4 5 8 9 12 15 16 18 24 27 24 21 23 24 22 23 24 23 22 22 21 25 28 28 27 26 25 22 23 27 32 30 29 25
19 17 19 19 18 17 14 11 6 3 9 8 10 10 10 15 18 21 21 18 20 24 21 21 22 21 21 24 27 23 22 25 28 29 27 26 22 25 26 27 30 29 26
16 15 15 12 14 12 13 12 12 7 7 8 6 5 9 13 19 19 18 17 20 19 14 17 19 18 19 23 24 24 24 26 26 28 26 24 24 21 28 28 30 30 29
13 12 10 15 9 9 12 10 7 1 5 3 1 6 11 14 18 17 15 15 15 16 15 16 15 15 16 17 20 24 25 24 25 28 27 25 24 24 25 29 34 33 32
13 14 13 11 8 10 9 8 3 2 4 4 10 11 12 14 17 14 10 13 13 11 11 12 12 10 7 11 13 17 18 20 23 26 25 25 25 26 25 27 26 27 33
14 13 13 8 10 14 13 9 6 5 5 6 12 15 13 17 16 14 8 9 10 9 12 12 8 5 4 3 6 11 15 17 20 24 25 25 27 27 20 19 23 26 30
17 14 21 17 14 10 15 8 9 8 8 9 10 13 15 16 15 14 9 8 10 11 8 11 8 5 2 2 5 9 13 17 20 24 25 26 26 22 20 19 21 24 27
15 18 24 17 11 8 13 8 9 10 8 10 10 11 14 16 15 14 12 10 10 11 5 12 12 7 4 3 3 7 12 16 18 21 25 28 28 26 24 24 25 26 28
20 21 21 19 19 11 13 12 9 9 7 7 7 8 10 15 15 15 14 10 9 10 14 10 10 11 7 4 3 4 7 10 13 15 20 24 25 26 27 28 27 27 28
17 23 19 19 27 14 16 12 13 10 7 8 9 10 11 12 12 11 14 11 8 9 9 10 11 10 8 7 4 2 5 7 10 13 14 17 19 22 24 26 26 31 27
19 15 12 14 12 13 11 9 9 6 7 8 10 11 13 13 12 10 11 10 8 9 9 8 9 9 9 8 6 6 8 7 12 12 16 20 22 19 26 28 22 23 23
14 15 13 7 6 3 6 4 5 5 7 8 12 13 15 11 12 14 11 9 8 9 9 9 8 8 8 8 9 9 9 9 9 8 8 12 15 16 18 19 20 21 20
16 13 13 4 6 3 2 6 9 9 9 11 14 15 17 14 12 11 15 11 10 10 10 9 9 10 9 8 9 10 10 10 12 12 13 13 14 15 18 21 23 24 27
15 13 13 15 14 10 10 10 13 14 13 13 15 16 15 16 15 11 14 12 11 13 14 12 12 12 12 11 10 10 11 11 11 12 13 16 17 18 20 22 23 24 23
17 15 13 16 18 10 13 15 13 15 15 15 17 18 17 18 17 16 14 15 13 12 13 14 13 13 13 13 14 13 14 15 17 18 19 21 22 23 24 24 24 26 26
17 15 18 18 19 12 16 19 19 18 21 20 19 19 17 20 21 19 18 18 17 15 17 17 17 18 18 18 18 19 18 18 21 24 27 28 28 27 26 25 25 25 26
21 19 16 15 16 18 16 21 23 25 22 21 21 22 21 20 21 22 20 22 23 22 22 22 22 23 22 23 23 25 25 23 25 28 29 29 30 30 29 26 27 28 27
17 16 16 17 16 17 20 25 22 21 21 20 20 21 21 23 23 22 23 25 26 27 27 27 27 27 26 25 26 27 27 27 28 30 32 32 30 28 28 28 28 28 29
16 17 18 19 19 20 24 25 24 23 22 21 22 24 23 24 25 26 25 26 28 30 31 32 33 31 27 26 27 29 29 33 35 35 32 29 29 28 27 27 27 25 24
15 16 17 21 25 26 26 25 26 25 24 27 29 28 27 27 26 25 25 27 29 30 31 33 30 31 32 37 34 33 34 36 36 33 31 28 27 25 22 22 21 21 22
16 20 25 30 31 30 27 24 23 25 26 25 24 22 25 27 28 27 27 29 30 30 33 34 34 35 32 39 44 39 38 42 35 33 28 26 23 22 21 21 22 23 25
25 25 28 30 32 27 24 23 24 24 24 25 24 26 28 30 31 29 27 28 28 30 33 32 30 38 39 43 43 43 42 35 30 31 27 23 21 22 23 22 23 27 29
23 24 23 23 20 17 22 24 23 26 27 28 28 29 32 33 33 31 30 31 29 31 31 32 31 39 40 39 40 40 35 33 29 25 23 22 22 24 24 25 28 29 33

GFSMW_500_spd_021.txt.gz
Wind_Speed
17 19 22 24 24 24 20 23 27 25 14 17 16 12 10 9 12 12 16 16 18 22 23 23 20 21 22 23 22 25 24 24 24 24 26 28 27 24 21 27 26 32 24
17 21 23 24 23 21 19 21 25 27 12 19 16 12 10 9 12 14 15 18 21 23 23 19 19 19 19 21 22 21 21 24 29 28 28 29 30 28 25 24 29 29 27
19 20 19 20 23 22 17 19 23 21 13 20 14 6 5 8 11 12 17 21 21 21 19 18 17 18 18 19 22 22 23 22 27 31 30 29 29 30 27 26 26 30 30
20 18 22 21 20 21 17 18 20 18 11 5 10 4 7 9 10 14 20 22 19 20 17 15 16 15 14 18 21 21 22 22 21 23 30 29 28 28 27 27 26 30 30
21 19 21 20 20 20 16 15 17 15 9 6 3 4 6 8 13 17 22 24 19 19 17 15 16 15 16 16 18 20 20 21 19 20 25 27 28 27 25 25 24 24 27
19 18 17 20 20 18 15 12 15 14 9 5 7 9 9 10 14 19 22 21 17 17 16 16 17 17 17 16 16 15 17 18 24 21 22 25 27 26 25 26 25 23 23
17 16 18 19 20 19 16 13 11 12 8 7 8 9 10 10 14 17 20 18 17 17 15 17 20 20 15 12 13 15 16 17 17 12 25 23 24 25 25 24 24 21 22
14 17 18 19 19 21 17 13 10 8 8 7 6 9 10 11 13 16 17 15 14 15 15 16 18 14 11 10 10 9 9 11 14 16 17 19 22 23 24 22 21 24 23
18 19 17 18 22 22 19 14 11 10 10 10 9 12 13 13 14 15 15 14 14 13 13 12 17 14 11 10 9 7 6 8 11 15 17 16 18 21 22 22 23 23 24
17 18 18 20 26 25 18 13 11 10 10 11 11 12 12 14 14 13 14 13 12 12 13 9 13 14 9 9 6 5 4 4 6 9 11 14 17 20 22 22 22 21 23
15 16 17 25 27 25 23 15 11 12 9 11 11 10 10 13 14 12 12 12 10 10 10 10 12 11 10 9 7 6 4 5 7 9 12 15 17 19 22 23 23 23 23
11 16 22 26 30 26 26 19 15 13 11 12 12 11 9 12 14 11 11 12 9 10 9 10 9 10 9 9 8 6 5 6 6 7 10 12 15 18 21 24 25 27 27
11 17 24 27 19 23 19 17 10 11 13 12 14 13 10 10 12 11 11 9 6 6 8 7 8 8 9 10 10 10 9 10 8 8 11 13 14 15 18 21 23 25 28
12 19 23 18 16 23 7 10 6 11 12 12 13 12 13 12 11 10 10 10 8 6 8 8 8 9 10 10 11 12 12 10 9 10 11 11 9 6 10 15 16 20 24
12 19 22 18 12 16 12 5 2 4 6 8 9 10 12 10 9 9 9 10 10 10 9 9 9 8 9 10 11 11 10 7 8 9 10 11 12 14 15 15 18 22 24
13 16 19 15 15 13 10 7 6 8 9 11 11 11 10 8 8 8 8 11 9 9 10 9 8 8 9 9 11 12 15 16 15 14 12 12 13 12 14 15 17 20 23
15 16 15 13 12 13 11 12 12 11 12 13 14 17 16 15 12 10 10 12 12 12 12 11 10 10 11 12 13 15 17 18 19 20 22 21 19 18 19 20 21 22 23
16 18 17 16 15 16 11 12 12 13 13 14 15 17 17 16 16 13 14 16 15 14 14 15 15 16 17 19 21 22 23 23 24 25 26 26 26 26 26 25 26 27 28
17 18 20 21 18 14 13 12 10 10 12 13 13 14 16 15 15 15 17 18 18 17 17 18 21 21 22 23 24 25 27 28 28 29 29 30 31 30 30 29 29 30 33
22 19 20 20 21 16 15 14 13 16 15 14 15 15 15 16 16 17 19 19 17 18 19 21 21 22 24 26 27 28 28 31 32 31 29 32 33 34 34 33 32 33 32
23 23 21 22 24 22 18 17 17 16 20 20 19 17 18 21 22 22 23 23 21 20 21 23 24 25 27 28 29 30 30 29 29 30 32 31 33 35 36 35 33 33 31
24 25 24 25 25 24 22 19 17 20 20 21 23 20 20 21 20 20 19 18 19 21 23 24 26 28 30 31 33 34 33 34 35 37 38 35 34 35 34 33 29 30 30
27 25 27 26 26 25 22 20 22 24 26 24 20 20 21 20 18 19 20 21 22 26 28 30 31 33 34 32 34 34 34 34 35 40 42 34 35 38 38 34 32 30 28
27 29 29 28 28 25 22 21 22 22 22 18 19 19 19 20 22 26 28 28 30 31 32 33 33 34 37 36 35 35 34 34 34 39 44 38 35 33 33 33 31 30 28
25 27 28 29 28 28 28 26 23 22 20 20 19 21 23 26 29 30 32 34 36 35 37 38 39 38 36 36 36 36 37 39 39 39 39 38 35 31 31 31 30 29 29
26 27 31 30 33 33 28 25 26 25 24 24 26 29 31 34 35 35 34 36 37 39 41 42 42 40 40 38 38 39 40 40 39 39 37 34 32 31 31 31 30 30 30

GFSMW_500_spd_024.txt.gz
Wind_Speed
22 23 23 26 25 24 25 25 26 29 30 15 13 14 8 1 7 9 11 2 13 13 14 14 13 14 18 18 15 18 24 13 16 18 25 21 21 21 21 19 22 25 27
23 23 21 26 27 27 27 27 26 25 32 12 14 8 6 1 5 8 9 9 13 14 14 13 11 10 13 16 19 18 18 20 16 21 26 22 21 24 23 23 24 22 27
23 22 23 23 25 26 24 26 24 22 25 5 7 9 6 1 6 7 12 17 16 14 14 13 10 10 9 12 16 19 18 19 21 20 22 26 25 24 25 28 26 24 24
22 22 21 22 23 25 23 22 20 18 17 11 6 4 2 3 3 7 12 17 19 15 13 14 13 12 11 11 13 16 18 18 20 19 21 24 28 25 24 27 26 23 24
24 22 20 20 24 24 22 17 15 15 12 8 8 7 8 2 5 9 13 16 16 15 14 13 15 17 17 15 14 15 17 18 18 18 15 18 22 25 25 24 24 22 22
22 20 17 21 24 23 24 18 14 12 11 8 7 6 4 4 6 10 13 15 13 13 12 12 15 18 19 16 12 11 14 15 15 15 16 14 19 20 24 24 21 22 21
19 16 18 22 23 23 24 21 15 10 6 4 7 9 8 8 11 12 15 16 14 14 13 14 15 18 15 13 11 11 11 14 15 10 12 15 17 17 20 21 22 20 22
14 16 20 23 23 25 24 21 14 11 9 8 9 12 12 13 15 18 18 17 13 13 14 14 13 17 14 11 11 10 7 6 7 9 11 12 15 16 18 20 20 20 21
15 18 21 23 25 24 24 16 13 11 9 8 9 11 11 13 16 19 18 17 14 13 14 12 14 15 12 12 14 7 6 3 4 5 7 10 12 14 17 19 20 20 20
16 15 18 22 24 28 28 22 16 10 9 8 10 10 10 11 15 17 19 18 15 11 11 12 13 12 13 13 12 11 8 5 2 2 4 7 9 11 14 16 18 20 20
14 15 18 21 29 31 28 23 19 12 8 7 9 10 10 11 14 17 17 15 15 12 10 10 11 12 12 13 12 11 9 8 6 6 7 8 10 12 13 15 16 19 19
13 16 20 24 33 32 31 29 11 8 7 7 10 11 11 12 14 17 17 15 12 11 11 10 10 11 12 12 11 11 11 11 9 6 7 9 11 12 15 16 17 18 18
12 15 20 25 32 32 28 4 5 7 2 7 10 9 10 11 13 16 15 14 14 10 11 11 10 10 11 13 13 11 10 9 8 7 9 10 10 6 9 13 16 17 19
11 13 18 24 32 24 26 9 9 5 3 6 7 8 9 12 15 16 14 15 13 13 13 12 12 12 11 11 12 12 12 10 9 9 9 12 13 10 11 14 13 15 16
13 13 16 20 28 15 12 14 12 8 9 8 8 11 13 14 12 12 13 13 12 12 13 12 11 11 11 10 10 11 12 13 13 13 13 13 12 11 13 14 15 18 20
15 13 13 16 21 17 21 11 9 9 10 10 10 11 14 13 10 11 12 11 13 13 13 13 11 11 12 12 12 13 14 15 16 17 17 17 18 19 19 19 19 19 19
14 14 14 15 18 18 19 17 14 11 11 15 15 13 13 12 12 11 14 13 13 14 15 14 14 14 14 16 16 18 20 21 22 21 21 21 22 22 23 23 23 24 24
15 16 18 15 16 20 20 15 18 17 11 15 16 14 14 12 13 11 15 14 13 15 16 17 18 19 20 21 22 23 25 27 28 28 27 28 27 26 26 26 27 28 28
18 19 19 16 16 20 18 19 15 17 9 14 15 15 14 13 14 11 14 16 16 16 17 19 19 20 21 22 23 25 27 28 29 30 29 29 28 29 29 29 30 30 32
18 21 22 19 15 19 21 17 18 19 17 17 19 19 17 16 16 15 17 20 22 20 19 21 21 21 21 23 25 26 28 30 31 32 32 31 31 33 33 34 31 30 31
21 20 23 17 17 22 23 22 20 20 20 18 20 23 22 19 18 18 17 18 17 15 14 16 19 21 24 26 27 28 28 31 32 32 33 35 35 35 36 35 28 35 35
24 21 24 25 23 25 26 23 22 22 19 18 25 24 22 20 18 16 14 14 16 18 20 25 27 24 27 27 29 31 32 34 34 35 35 35 36 37 37 40 42 31 33
23 22 24 25 27 27 28 25 23 20 21 19 24 17 13 16 17 17 19 22 25 27 29 28 30 30 32 33 35 35 36 35 39 38 38 36 37 38 39 38 36 33 33
23 24 26 28 30 30 29 26 23 23 22 20 18 18 18 19 20 22 25 27 29 30 29 30 31 33 35 38 38 37 38 38 39 40 40 39 39 40 39 38 35 33 34
25 23 25 27 28 29 28 28 28 28 29 24 21 22 22 24 26 29 32 32 30 33 34 35 36 38 39 38 39 40 39 39 39 40 40 39 38 37 37 35 32 33 33
27 26 28 29 30 30 33 29 31 26 24 28 27 28 29 31 32 33 33 32 34 37 38 39 40 40 39 38 38 38 38 38 37 37 36 36 37 36 35 34 34 33 33

GFSMW_500_spd_030.txt.gz
Wind_Speed
29 27 27 26 23 23 23 22 21 23 24 21 20 9 11 13 10 8 5 2 3 9 13 11 12 12 12 12 16 15 18 20 21 20 20 22 26 22 23 22 22 23 22
32 29 28 26 22 22 22 20 22 23 21 22 16 4 12 18 9 5 2 5 8 10 10 10 10 10 12 12 12 16 17 19 21 21 23 18 22 23 21 20 21 24 21
32 28 26 27 22 22 23 22 21 21 20 20 9 13 16 12 6 6 5 7 10 10 8 10 10 11 10 10 13 13 16 20 20 19 18 17 13 20 21 21 20 20 22
34 27 25 24 21 21 22 22 20 17 14 15 15 10 6 7 2 3 6 8 11 10 9 10 10 8 11 12 13 15 17 19 19 18 18 18 17 19 20 22 21 20 25
32 23 23 21 20 23 22 22 19 13 10 7 6 6 3 5 4 5 7 9 8 8 6 6 6 8 10 11 10 10 12 16 17 17 19 19 20 19 20 24 21 20 23
26 20 20 18 20 22 22 22 20 13 12 9 6 4 4 4 5 7 7 8 7 6 5 7 6 7 8 7 8 7 7 11 13 15 16 19 21 20 18 19 22 20 19
18 16 15 17 19 17 19 24 18 15 12 11 10 9 8 6 7 7 6 6 5 5 4 4 4 6 6 7 9 8 7 7 8 11 14 15 18 17 14 17 20 19 20
10 10 14 16 16 19 21 25 21 13 11 8 8 7 7 7 7 7 8 7 6 4 3 4 4 5 7 8 9 9 8 6 5 5 8 8 10 11 11 14 8 13 15
3 11 14 14 18 21 24 30 26 15 9 9 5 5 5 4 5 7 7 6 6 6 3 4 6 6 9 11 10 10 8 8 4 2 1 5 6 7 12 11 12 18 21
15 9 12 13 19 23 31 29 21 18 12 7 5 4 4 3 4 6 7 6 7 8 7 6 6 8 10 10 10 11 10 10 7 5 4 3 1 4 7 10 13 11 11
16 9 11 13 18 26 32 26 20 27 20 9 4 2 4 5 8 6 6 7 7 8 8 7 7 8 9 10 8 9 10 11 9 9 7 5 1 3 4 6 9 10 12
15 9 8 12 16 22 26 20 9 13 10 10 2 2 4 5 5 5 5 8 8 7 7 9 8 8 7 8 10 12 11 9 7 7 8 12 9 5 2 3 5 9 13
24 11 3 9 13 17 22 16 15 19 8 4 3 4 4 4 6 6 6 7 7 8 8 7 7 6 5 6 7 8 9 9 9 9 9 8 8 7 8 9 10 12 11
14 12 2 6 10 12 16 12 14 14 9 4 4 4 7 7 6 6 6 7 8 8 9 8 7 4 4 3 3 3 3 3 4 6 7 8 9 10 12 12 13 14 15
14 8 6 7 7 11 14 16 10 11 7 6 6 8 7 8 7 7 8 6 8 8 9 8 8 6 4 3 4 5 6 8 9 11 12 12 13 13 14 15 16 16 18
31 7 8 10 9 8 14 13 10 8 10 4 7 7 6 9 12 9 8 9 8 7 10 10 9 9 9 9 10 12 13 15 16 16 17 16 16 15 15 14 14 16 18
29 22 9 11 11 13 14 11 11 6 7 3 1 0 5 9 11 13 12 11 10 9 9 10 9 9 10 11 12 14 16 16 16 16 17 17 18 19 20 21 20 21 21
20 18 17 13 16 14 19 17 10 11 7 5 6 4 7 10 11 11 11 11 12 11 11 11 10 10 11 10 10 12 13 15 18 20 22 22 23 24 24 24 24 24 25
12 18 16 18 16 19 24 24 17 11 9 11 13 13 13 12 12 12 12 13 12 11 10 7 6 5 8 12 14 17 19 21 22 23 25 28 28 28 28 27 27 27 28
13 17 14 14 18 20 30 27 27 3 8 12 15 16 16 15 21 16 15 13 10 8 7 5 8 12 16 19 21 24 26 25 25 26 27 30 31 31 31 30 31 31 30
10 13 13 12 15 19 25 20 8 9 13 15 16 16 17 19 16 11 12 13 12 12 13 17 20 21 22 21 22 22 25 27 29 30 30 32 34 35 36 35 34 34 33
11 12 12 12 13 15 16 17 18 19 17 19 20 19 17 20 18 15 13 14 15 17 20 22 24 24 24 23 23 25 28 30 31 33 36 37 36 34 34 34 34 33 32
13 15 16 16 14 14 17 18 20 20 20 19 20 22 21 22 23 21 21 20 21 22 23 24 26 27 28 29 29 31 32 35 36 37 37 37 39 39 39 37 36 34 34
17 17 23 21 19 19 20 22 21 20 20 21 23 22 24 25 28 28 28 25 26 28 28 28 30 31 31 32 34 35 39 41 41 40 41 40 41 42 41 38 38 37 37
24 23 24 26 24 22 24 25 24 24 23 23 26 28 28 27 27 26 31 32 33 33 33 33 33 34 34 34 36 40 42 42 42 43 42 40 41 42 39 39 40 40 39
25 25 25 28 28 27 27 27 27 29 28 28 29 28 24 27 28 29 30 33 35 35 35 34 34 36 35 37 40 41 43 43 42 41 40 41 41 39 38 39 40 41 42

GFSMW_500_spd_033.txt.gz
Wind_Speed
25 35 38 28 26 25 22 20 21 21 20 19 22 10 9 11 13 10 7 5 7 8 10 14 12 14 16 18 18 18 20 22 21 20 21 19 19 20 19 25 24 26 26
28 29 38 29 24 22 21 20 20 21 23 21 25 3 13 13 12 12 11 7 6 9 11 10 11 12 15 14 15 16 18 22 22 20 20 19 19 17 22 24 26 25 27
28 28 34 30 25 20 20 20 18 19 20 24 22 2 16 21 14 7 7 8 8 10 9 9 10 12 14 12 14 16 19 19 19 20 20 19 18 22 22 25 24 23 24
27 28 31 27 25 24 22 19 18 18 16 16 19 19 8 10 3 2 7 9 10 11 9 7 9 11 14 15 16 18 19 22 19 17 20 20 19 17 15 24 22 22 22
27 33 25 25 21 21 22 21 19 16 16 12 10 10 8 6 7 9 11 11 11 11 8 8 8 10 12 14 14 15 14 15 16 17 17 18 19 19 21 15 20 21 22
31 25 19 21 17 20 20 20 21 15 16 13 10 7 5 4 6 9 12 11 11 7 7 7 8 9 13 10 11 13 14 12 12 12 14 15 18 21 20 18 22 22 24
32 57 23 12 14 17 20 21 23 20 14 12 10 8 6 4 2 5 6 8 7 5 7 7 6 8 8 8 9 9 8 8 7 8 11 12 13 17 19 21 22 17 22
46 45 7 3 12 17 23 26 28 24 13 12 8 8 7 6 3 2 6 5 4 3 4 4 5 3 5 5 6 7 7 5 4 4 4 7 8 9 16 18 10 15 17
37 40 18 9 13 19 26 29 31 24 15 10 7 5 7 6 3 2 5 4 4 3 2 4 4 5 5 6 7 7 5 6 4 1 3 2 4 5 5 4 9 11 12
35 38 27 17 14 18 26 30 32 26 20 14 8 4 5 5 2 1 3 3 3 4 4 4 4 6 6 6 6 9 7 6 6 4 3 3 2 2 2 4 8 11 13
39 35 20 16 12 15 25 31 34 20 22 22 9 4 3 5 1 2 2 2 2 2 3 5 5 6 6 5 5 6 8 8 9 10 10 8 5 4 4 4 5 7 8
33 15 11 14 14 11 20 25 24 7 3 12 7 4 4 1 3 4 4 0 1 2 2 3 5 5 4 4 8 9 9 9 10 12 12 12 11 10 9 8 8 9 10
29 21 18 20 15 7 12 17 14 16 13 10 8 5 3 2 4 5 4 2 2 3 4 4 4 4 1 0 3 3 2 3 4 6 6 6 7 8 9 9 9 11 12
21 25 17 19 14 7 5 13 9 10 9 5 2 2 2 4 2 7 7 3 3 3 5 4 4 4 3 3 4 4 4 6 7 8 9 11 12 12 13 15 15 15 16
29 35 26 30 21 10 3 5 9 6 7 7 6 4 1 2 2 4 7 7 6 6 6 6 7 6 5 6 7 6 7 9 11 12 14 16 16 16 15 14 14 14 15
28 22 28 12 32 22 10 6 7 6 7 5 6 8 1 2 6 4 6 8 8 9 8 8 7 8 7 7 10 10 11 11 12 13 13 13 14 14 14 16 19 20 21
24 21 20 29 24 21 15 12 9 8 9 10 11 12 3 4 8 8 6 8 8 7 10 12 10 9 8 9 9 8 7 8 8 10 13 16 17 18 20 21 22 23 24
19 13 6 18 14 9 9 7 11 16 15 17 8 6 4 7 10 10 10 10 10 9 9 12 12 12 10 7 7 8 9 11 14 17 19 20 21 22 22 24 25 26 28
16 13 10 16 9 12 7 12 20 21 20 12 3 7 7 11 13 15 8 10 11 10 7 6 5 6 7 11 15 15 16 18 19 18 20 22 24 24 24 26 27 29 30
13 11 9 12 14 13 12 15 15 23 7 6 9 10 10 12 11 12 9 7 10 11 8 7 10 14 17 19 20 19 18 17 20 23 24 25 27 29 29 30 31 32 32
7 9 10 12 12 12 11 11 13 13 10 7 6 12 10 12 15 13 13 12 12 13 14 15 15 17 19 20 20 22 23 24 23 24 27 29 31 33 34 34 35 35 34
9 11 11 15 16 14 11 11 12 11 12 12 10 13 14 14 17 21 19 18 17 17 18 20 21 21 21 23 24 27 29 29 29 30 32 33 35 36 39 40 40 40 40
16 15 15 15 13 15 14 13 14 15 16 13 14 14 15 16 16 20 23 27 27 24 23 24 26 28 29 29 29 30 31 32 33 34 36 38 42 44 44 43 41 41 42
17 14 12 15 15 17 19 18 17 18 17 17 16 17 20 20 21 25 26 25 28 31 30 31 31 32 34 34 34 33 34 34 37 39 41 43 46 45 42 42 43 43 40
17 17 17 18 20 22 23 22 23 21 22 22 21 21 22 23 25 26 26 27 28 30 31 32 33 34 34 33 34 35 36 38 41 42 44 46 44 42 43 43 41 41 41
19 20 19 21 22 24 26 27 28 27 26 27 27 26 26 25 26 27 29 30 32 33 33 33 33 34 35 37 37 37 39 41 43 43 45 44 43 42 39 38 38 38 38

GFSMW_500_spd_036.txt.gz
Wind_Speed
27 28 31 30 29 28 27 26 24 21 20 19 23 16 7 4 13 13 11 11 8 7 9 12 16 17 16 15 17 17 17 21 22 20 22 21 21 21 19 17 22 22 21
25 30 34 32 28 27 25 25 22 24 20 19 27 7 9 7 11 11 10 8 6 7 11 13 12 12 11 13 13 15 17 18 19 20 22 20 21 20 20 18 22 23 23
23 25 23 28 29 24 23 21 24 21 19 16 21 19 6 12 7 8 7 6 6 9 12 11 10 11 12 13 13 15 16 17 19 19 18 20 19 20 21 20 22 25 23
27 31 29 23 10 11 13 19 20 21 18 14 14 17 12 12 11 4 1 4 7 9 10 8 9 11 11 11 15 17 17 18 18 20 20 18 19 19 19 16 20 21 22
30 40 42 16 6 6 5 15 18 21 18 13 11 10 9 11 7 6 6 7 7 8 7 6 6 7 9 12 16 17 18 19 18 17 15 15 16 17 16 17 16 19 20
28 35 47 51 14 5 9 14 18 23 18 13 8 8 6 4 3 5 7 7 7 6 6 7 7 6 9 13 14 15 15 15 15 12 11 11 12 13 15 18 14 13 17
27 34 41 39 18 10 13 18 22 22 20 15 7 7 8 6 4 5 8 7 5 4 4 5 6 7 8 10 10 12 11 11 10 8 8 8 10 12 12 14 16 17 16
33 37 40 34 21 15 18 21 24 23 20 15 5 4 6 7 2 2 5 5 5 4 2 3 5 5 4 5 8 11 9 8 5 5 5 5 5 6 7 12 14 11 14
31 32 36 20 19 19 19 22 25 24 19 14 9 5 3 5 3 3 3 4 3 2 1 1 2 4 5 6 7 8 6 8 5 5 5 4 3 3 6 5 7 6 7
24 29 27 14 19 17 19 24 27 28 16 12 10 8 5 3 4 4 3 3 2 0 0 1 2 4 7 6 3 6 6 7 8 7 6 5 5 4 2 9 4 4 7
23 26 22 14 16 19 21 23 24 28 13 16 14 10 6 4 4 5 5 3 3 3 2 1 2 4 5 3 2 2 5 8 13 15 15 13 11 9 8 5 4 3 4
20 22 22 13 11 15 23 23 16 17 11 10 12 6 3 5 5 4 3 3 2 3 3 4 3 2 1 1 5 6 6 5 5 7 7 8 8 8 7 6 6 7 5
24 28 29 15 14 13 17 19 9 11 12 9 4 2 1 3 3 2 1 3 3 4 4 3 3 2 2 3 3 3 2 2 4 5 7 9 10 10 10 10 10 11 12
28 29 24 23 20 14 17 12 7 6 5 4 4 3 1 2 4 2 2 5 5 4 5 5 3 4 4 4 6 6 6 7 9 10 11 13 14 14 14 13 12 13 13
30 31 24 22 22 12 19 18 7 4 3 5 4 4 3 5 7 4 3 4 6 7 7 7 6 5 7 7 8 9 10 11 13 15 15 15 14 12 12 13 13 15 17
33 35 33 26 26 25 21 19 14 11 5 5 9 8 5 7 7 4 4 5 4 8 10 9 9 8 8 8 10 12 13 13 12 11 11 11 13 15 15 15 17 18 21
37 43 29 26 26 31 37 33 21 13 7 5 9 8 10 13 12 9 8 3 3 5 7 8 10 10 9 9 10 9 9 9 9 10 12 16 17 17 18 19 19 20 22
34 27 27 26 27 27 12 25 14 9 10 9 10 14 15 8 9 6 9 2 4 6 8 9 7 7 7 6 7 9 10 11 14 17 18 17 17 19 21 20 22 25 26
27 25 27 24 24 10 7 7 4 7 17 15 6 2 3 6 12 10 8 4 5 7 8 7 5 4 6 8 12 15 16 16 16 16 18 20 20 21 23 25 27 28 30
29 16 19 20 13 9 6 6 5 2 11 11 6 1 3 5 8 10 8 8 7 7 10 11 13 14 15 16 15 15 17 17 20 23 23 24 25 27 28 28 30 33 35
29 17 13 13 13 11 9 9 8 1 2 2 3 4 4 5 8 14 12 9 11 11 12 14 17 18 20 20 21 20 21 22 23 25 27 29 28 30 31 32 36 38 40
27 22 18 17 16 13 8 6 4 6 4 5 6 7 11 13 12 15 11 12 14 15 17 19 20 22 22 24 25 27 29 28 28 28 29 32 33 36 37 37 40 42 40
27 24 20 23 20 12 11 10 9 8 8 9 14 15 18 14 16 17 15 18 20 20 18 20 21 23 26 27 29 30 32 33 32 33 34 34 35 36 38 40 42 43 42
27 26 22 24 21 17 13 11 11 11 11 12 14 16 15 17 20 19 20 22 20 21 21 23 24 26 27 29 31 32 33 35 36 36 37 37 38 39 41 42 42 43 41
23 23 24 24 26 24 20 17 16 14 14 15 18 21 21 22 23 24 24 24 24 24 25 27 28 29 30 30 30 32 35 37 37 37 38 39 41 42 43 42 41 40 39
23 24 28 26 24 22 22 22 20 20 20 21 22 24 25 26 27 29 28 28 28 28 31 31 31 30 30 31 33 36 37 37 39 41 43 44 44 43 40 40 39 38 37

GFSMW_500_spd_042.txt.gz
Wind_Speed
29 28 30 33 36 36 47 24 12 7 9 7 12 10 7 12 12 13 13 14 12 8 6 7 7 8 10 11 12 9 10 11 12 14 14 14 16 18 18 20 20 20 20
23 28 29 32 33 51 48 41 6 12 14 7 10 1 7 9 15 15 15 12 9 8 6 5 7 8 9 9 8 9 10 11 12 15 15 15 15 16 18 19 19 20 21
25 29 30 24 33 39 33 12 16 15 18 10 10 3 10 5 15 16 19 16 12 8 6 6 8 7 8 7 7 8 9 11 13 16 17 17 16 15 15 17 19 18 19
25 27 26 23 29 22 22 23 19 18 15 9 7 7 4 6 12 19 13 14 7 8 7 7 9 6 6 5 7 8 11 12 13 15 16 17 18 18 17 17 20 20 18
24 26 24 21 28 17 20 21 23 22 15 9 4 6 7 9 8 8 6 4 5 6 6 6 6 6 7 7 8 9 10 10 12 12 13 14 14 14 15 16 17 18 16
25 26 20 20 25 17 18 19 22 24 20 10 3 2 2 1 5 4 1 2 3 5 4 5 6 5 5 6 7 7 9 11 10 10 10 10 10 11 12 14 17 17 17
20 20 17 22 26 14 16 16 18 20 18 12 3 6 3 6 4 4 2 2 2 3 4 3 4 4 3 3 4 7 7 7 6 4 5 7 8 9 10 13 14 16 13
17 17 15 20 23 12 14 13 16 21 18 15 6 7 9 5 4 4 2 1 2 4 5 5 4 3 1 2 4 5 4 5 3 3 3 3 3 5 7 8 12 13 13
15 16 16 23 26 18 15 14 16 20 21 23 11 9 8 5 4 3 4 3 3 3 5 5 4 3 1 3 3 4 5 4 3 4 6 5 3 3 6 5 8 10 8
15 16 20 25 26 25 25 23 18 20 21 19 11 9 11 7 4 3 4 4 3 4 5 6 4 4 3 3 1 2 6 11 12 10 9 9 9 7 7 8 5 3 5
17 19 21 28 29 30 35 29 15 18 17 9 11 9 8 4 4 4 6 6 5 5 6 7 5 6 5 3 3 5 6 5 6 6 8 8 8 8 8 8 7 7 6
21 24 26 30 33 35 40 46 9 15 10 4 9 8 8 5 3 3 2 5 6 6 5 7 8 8 7 4 5 7 8 5 2 2 4 7 8 9 11 11 11 11 11
24 26 29 29 31 34 39 35 10 10 4 6 9 8 7 5 4 2 2 7 8 8 8 7 7 7 7 7 7 7 8 8 8 7 8 9 11 12 13 13 13 12 12
24 27 29 30 31 33 28 24 12 9 2 3 6 6 4 4 3 2 3 6 8 10 10 9 8 8 8 8 10 10 12 12 13 13 14 15 16 16 15 12 12 13 13
23 29 30 31 32 32 21 17 11 11 7 7 6 4 5 6 5 4 4 7 9 10 12 12 10 9 9 10 10 11 12 14 15 16 17 17 16 14 12 15 16 17 17
29 32 30 28 29 26 20 21 18 18 14 11 9 10 8 7 8 9 7 4 8 11 12 13 11 11 12 12 12 12 13 14 14 14 14 13 12 13 17 18 17 16 17
30 29 24 26 26 24 21 24 20 19 16 12 13 10 9 10 11 13 15 11 9 11 11 10 9 11 13 13 14 13 13 13 13 13 14 15 16 17 16 17 18 20 21
23 22 23 24 25 22 20 21 21 25 23 23 21 15 11 12 11 13 13 12 11 12 9 5 6 7 9 10 11 12 13 14 15 17 18 17 17 17 18 19 21 23 25
20 22 26 25 22 21 19 22 22 10 14 17 15 18 18 15 13 13 7 6 10 13 6 7 8 9 10 12 13 15 17 17 17 17 17 18 19 20 21 23 25 26 28
22 22 27 26 21 19 18 20 19 8 9 14 15 22 21 19 17 14 9 7 6 7 11 11 12 14 14 15 18 18 19 19 20 21 22 24 24 25 26 27 29 31 32
22 24 26 27 22 21 17 17 15 12 21 20 11 8 21 20 12 10 8 11 11 13 13 15 16 17 18 19 21 23 24 24 26 27 28 28 28 28 30 32 32 34 35
22 24 25 26 23 23 20 15 12 11 5 8 6 4 5 8 10 11 13 16 15 14 15 15 16 20 23 23 23 24 25 26 27 28 27 27 29 31 32 34 35 35 36
25 26 24 23 22 21 20 14 10 11 12 8 13 15 11 13 16 15 17 14 15 17 18 19 21 20 19 23 25 26 28 29 30 29 28 30 31 34 35 35 36 38 40
27 25 24 21 25 25 18 15 12 11 12 13 15 15 16 15 18 18 13 16 17 19 21 22 22 23 24 27 29 31 32 33 33 32 32 34 36 36 38 38 39 40 42
27 26 23 21 26 37 21 16 15 16 17 18 20 21 21 22 23 22 22 22 23 24 26 27 27 27 29 30 31 32 34 34 34 35 36 38 40 39 39 40 42 43 42
30 30 26 29 21 23 24 20 18 19 22 22 22 22 24 24 25 25 27 28 29 29 31 29 30 30 32 33 34 35 35 35 36 36 38 40 41 41 40 41 40 38 37

GFSMW_500_spd_045.txt.gz
Wind_Speed
23 25 33 33 32 36 37 41 23 9 10 13 15 18 11 5 11 17 13 13 13 10 7 6 5 6 7 10 11 11 10 9 10 11 12 14 17 19 22 22 22 23 22
23 29 33 29 29 31 35 30 27 20 15 13 14 15 8 7 14 10 8 9 16 9 7 6 5 6 8 9 8 7 8 10 11 12 14 15 15 16 19 21 22 20 20
24 29 34 33 31 29 31 23 23 24 20 15 13 13 10 8 11 14 13 18 10 10 7 6 6 6 7 7 6 7 8 10 12 13 14 15 15 16 17 19 19 19 20
25 28 33 28 24 29 31 18 17 19 17 15 11 11 7 4 12 19 16 21 16 10 8 6 7 5 4 4 5 6 8 11 12 13 15 16 16 15 17 18 18 18 20
25 28 26 26 26 31 32 19 15 18 20 14 8 9 9 8 6 21 14 20 15 9 8 8 6 5 4 5 4 6 8 10 12 14 14 14 13 13 16 17 18 18 19
25 24 25 22 27 28 30 16 14 17 20 15 13 10 7 8 10 5 11 4 6 9 8 7 4 3 2 2 4 7 9 11 11 11 11 9 9 10 11 13 17 16 17
20 19 24 22 26 30 27 24 20 19 20 17 13 14 8 4 7 5 1 2 4 6 7 4 2 3 2 2 4 6 7 7 7 6 7 8 8 8 9 11 13 15 18
15 20 25 26 28 29 28 25 24 25 25 23 20 15 12 6 7 7 5 3 1 1 1 3 3 4 3 4 4 4 4 5 2 4 6 5 5 6 7 10 13 14 19
18 20 23 26 30 30 32 32 24 30 29 30 27 24 12 9 6 5 3 2 2 1 1 3 3 3 4 5 4 2 0 1 3 5 6 8 9 9 12 16 8 9 8
16 19 21 23 28 31 33 36 34 27 29 28 28 9 12 11 5 5 6 3 2 1 1 1 2 4 6 6 5 3 5 8 9 9 8 8 8 8 10 10 12 10 10
16 18 22 25 29 32 34 36 35 12 14 22 22 11 13 11 10 9 8 6 3 3 0 1 4 5 7 6 4 6 7 5 3 3 4 5 6 8 9 9 8 8 9
19 20 22 27 31 33 36 34 26 11 11 18 25 9 11 12 10 9 6 6 6 3 2 2 5 7 8 7 6 8 10 9 6 6 6 8 9 10 11 13 13 12 11
20 21 23 28 31 33 33 26 22 18 10 11 5 2 7 6 6 6 5 4 5 4 3 5 5 6 7 8 8 8 8 11 11 12 12 13 14 16 16 15 13 12 12
20 21 25 27 27 29 29 20 20 14 7 10 4 5 9 8 7 6 5 4 3 4 6 6 7 6 6 7 8 9 11 14 15 15 16 17 18 17 15 12 11 13 15
20 24 27 27 25 28 27 20 20 15 15 14 12 10 10 10 9 8 6 5 7 5 6 8 8 8 8 8 8 9 11 14 15 16 17 17 16 14 13 13 16 17 17
24 25 27 25 23 27 28 22 20 17 17 14 18 17 14 14 12 10 9 7 7 8 8 8 9 10 10 10 11 11 11 12 13 14 14 14 14 15 15 18 19 18 17
24 25 23 21 21 27 27 25 22 21 17 21 22 20 17 14 14 13 12 12 13 11 10 9 9 9 10 12 13 13 12 11 12 13 14 15 16 18 18 19 19 20 22
24 23 22 20 22 25 25 25 25 27 24 28 23 20 18 15 14 13 13 14 14 14 12 11 9 8 8 8 10 10 11 11 13 14 16 17 18 18 18 19 20 22 24
25 24 23 22 23 25 25 25 25 26 29 18 15 24 19 17 17 16 17 16 11 12 14 11 10 10 12 13 13 14 16 16 17 18 19 20 21 22 24 26 27 29 28
25 25 25 25 25 25 26 26 25 25 26 14 14 18 16 20 22 17 17 14 9 9 14 15 16 16 16 17 18 19 20 20 20 22 23 24 27 29 31 32 31 30 31
27 27 27 26 24 25 27 29 25 22 18 10 17 16 17 18 22 21 23 16 13 13 13 16 18 19 19 19 22 23 24 24 24 25 27 27 30 31 32 32 34 35 35
29 29 28 26 26 25 27 28 25 20 14 11 13 17 10 5 21 15 12 13 15 16 16 18 18 19 20 20 20 22 24 25 26 27 29 30 32 35 34 35 37 38 39
30 31 30 29 28 27 25 22 24 19 15 13 10 12 12 8 8 11 14 16 18 18 18 20 20 21 22 21 22 24 25 27 28 29 30 32 33 35 37 38 40 42 42
31 30 29 29 27 27 28 27 35 25 15 14 15 9 6 11 15 16 15 18 22 18 19 22 24 25 25 26 27 28 28 30 31 33 33 36 36 37 38 40 43 44 44
30 28 28 29 27 27 31 32 33 30 19 17 16 15 14 16 18 19 20 22 22 23 26 27 27 28 28 29 31 31 32 33 35 35 36 38 39 39 40 42 43 42 41
30 29 30 31 30 30 31 32 29 28 19 19 20 21 20 21 22 24 25 27 28 28 30 30 31 32 32 33 34 34 35 36 38 40 38 40 39 39 40 41 38 37 36

GFSMW_500_spd_048.txt.gz
Wind_Speed
29 32 34 34 44 41 39 32 23 21 18 18 17 17 16 8 8 22 19 15 14 13 11 10 9 6 6 7 8 9 11 12 11 12 11 12 14 17 19 21 21 21 22
28 30 34 32 36 37 37 37 25 24 21 16 15 19 18 8 12 9 18 14 17 14 11 8 8 4 6 7 7 7 8 9 11 11 12 12 13 15 17 18 18 20 20
26 28 33 32 34 33 33 31 23 24 25 21 18 16 17 12 12 14 15 13 11 14 13 10 7 4 6 5 6 7 8 9 10 11 14 14 14 14 16 17 18 19 18
25 28 28 29 33 32 34 28 20 17 21 24 20 14 14 14 10 10 15 15 15 18 13 9 6 5 6 5 5 6 6 8 11 13 13 14 14 15 16 19 12 19 17
23 26 26 27 29 31 30 26 24 19 23 23 20 19 15 15 10 11 21 19 26 19 12 9 6 5 6 6 6 5 6 8 9 11 12 12 13 13 13 16 19 19 21
25 25 24 27 26 29 31 25 23 16 17 21 21 19 15 12 10 8 10 25 18 12 8 8 7 6 6 6 5 4 7 7 8 9 9 9 9 10 9 12 14 13 24
23 23 22 24 26 28 28 29 24 21 20 20 21 18 13 11 9 10 10 3 4 4 10 9 7 6 6 5 4 4 5 4 5 5 6 7 7 7 8 10 13 12 11
17 18 19 23 27 30 30 33 34 31 23 21 21 20 22 11 11 4 3 3 3 1 4 6 7 6 5 4 4 4 5 3 4 3 3 5 8 10 11 13 5 8 8
14 16 19 21 26 30 32 33 34 33 21 16 17 17 15 10 12 10 8 5 6 8 11 9 6 6 5 3 3 3 3 1 4 4 6 7 8 10 13 14 15 9 10
14 14 18 22 25 30 31 32 34 28 22 12 13 16 7 7 9 8 8 3 0 2 4 6 6 5 3 2 2 3 4 7 8 5 5 5 7 9 11 12 11 11 10
15 16 21 24 27 31 30 33 34 26 20 17 14 9 2 4 6 8 5 3 4 5 5 4 4 4 2 2 3 5 8 8 5 3 2 4 7 9 12 14 13 11 9
17 20 22 28 28 30 29 30 33 29 21 18 12 7 2 3 5 8 7 7 7 5 5 6 5 4 3 3 4 5 11 10 8 5 6 7 10 10 12 14 14 12 10
22 24 23 28 31 30 28 28 30 27 18 18 16 2 3 3 8 7 8 7 7 9 9 6 4 4 4 5 4 5 6 10 11 10 11 12 13 14 14 14 12 10 10
22 20 23 28 30 29 26 27 29 24 19 21 17 10 5 6 8 6 7 8 9 11 13 10 6 5 5 6 4 5 7 9 11 13 15 15 16 16 15 13 11 12 13
22 20 24 27 27 25 24 26 27 24 19 18 20 13 12 13 9 8 8 10 11 12 10 10 9 8 7 7 6 6 7 9 11 13 14 15 15 14 13 13 15 15 16
21 21 23 23 21 23 24 25 25 27 23 19 19 15 18 17 15 14 12 14 12 9 10 10 9 10 9 9 9 10 11 11 12 13 12 12 14 14 15 16 17 17 18
21 23 23 24 22 22 26 27 25 26 28 21 17 23 24 23 18 19 14 15 14 14 15 13 11 9 8 10 11 12 13 13 12 12 12 13 15 17 18 19 19 19 20
23 24 23 26 25 24 28 29 27 27 30 28 25 22 22 22 21 17 17 16 14 16 14 15 12 10 8 8 10 11 11 11 12 13 15 16 18 19 19 20 23 24 27
21 24 26 27 27 27 28 30 28 27 29 31 28 21 18 24 24 18 18 17 19 15 12 13 12 12 11 11 12 14 14 15 18 19 20 20 21 22 24 26 28 30 32
26 26 28 28 29 28 29 29 28 27 30 32 29 22 12 23 23 25 22 19 17 15 11 11 13 14 15 15 16 16 17 17 19 21 24 24 25 25 26 27 28 30 31
28 28 30 29 29 28 30 27 27 28 31 27 24 13 19 14 18 15 23 17 19 20 14 15 14 15 15 15 17 17 19 21 23 23 24 25 25 26 28 29 30 32 34
32 32 31 31 28 28 28 28 28 27 26 28 25 23 17 18 15 19 22 21 17 19 16 18 18 16 16 16 18 21 22 22 21 23 25 28 28 30 31 34 35 37 38
36 36 33 30 29 26 26 26 26 27 29 27 29 27 18 17 14 13 17 18 16 13 13 17 21 15 16 18 20 22 23 25 28 29 30 30 32 33 35 36 38 40 40
39 38 36 32 29 27 26 26 26 29 29 30 29 25 16 12 12 10 11 11 14 13 11 19 21 18 21 24 25 26 27 28 30 33 34 34 34 35 37 38 39 40 39
38 41 37 33 30 29 27 28 29 29 28 25 26 26 14 16 15 18 18 19 16 15 17 19 22 23 26 27 29 29 29 31 33 33 34 36 37 38 38 38 38 37 40
39 39 35 31 30 30 29 29 30 30 27 24 21 24 22 20 19 20 23 22 23 23 22 23 24 26 28 28 30 31 32 33 34 36 36 39 39 38 36 34 36 39 39